| time (UTC) | temp C | wind direction | speed KPH | gust KPH | rain 1hr cm | rain 24hr cm | rain mn cm | humidity % | barometer mb |
| 20260507130857 | 11 | 86 | 4.8 | 12.9 | 0.00 | 0.00 | 0.00 | 70 | 1014.9 |
| 20260507130357 | 11 | 85 | 4.8 | 12.9 | 0.00 | 0.00 | 0.00 | 70 | 1014.9 |
| 20260507125858 | 11 | 104 | 8.0 | 14.5 | 0.00 | 0.00 | 0.00 | 70 | 1015.0 |
| 20260507125357 | 11 | 99 | 6.4 | 14.5 | 0.00 | 0.00 | 0.00 | 71 | 1014.9 |
| 20260507124857 | 10 | 114 | 6.4 | 12.9 | 0.00 | 0.00 | 0.00 | 71 | 1014.9 |
| 20260507124358 | 10 | 103 | 4.8 | 11.3 | 0.00 | 0.00 | 0.00 | 72 | 1015.0 |
| 20260507122858 | 10 | 116 | 4.8 | 14.5 | 0.00 | 0.00 | 0.00 | 74 | 1015.0 |
| 20260507122357 | 10 | 102 | 4.8 | 11.3 | 0.00 | 0.00 | 0.00 | 74 | 1015.0 |
| 20260507121857 | 10 | 100 | 3.2 | 12.9 | 0.00 | 0.00 | 0.00 | 74 | 1015.0 |
| 20260507121357 | 10 | 92 | 4.8 | 9.7 | 0.00 | 0.00 | 0.00 | 74 | 1015.0 |
| 20260507120857 | 10 | 76 | 3.2 | 8.0 | 0.00 | 0.00 | 0.00 | 75 | 1015.1 |
| 20260507115857 | 10 | 91 | 4.8 | 9.7 | 0.00 | 0.00 | 0.00 | 75 | 1015.2 |
| 20260507115357 | 9 | 84 | 3.2 | 8.0 | 0.00 | 0.00 | 0.00 | 76 | 1015.2 |
| 20260507114857 | 9 | 94 | 4.8 | 9.7 | 0.00 | 0.00 | 0.00 | 76 | 1015.2 |
| 20260507112857 | 9 | 139 | 3.2 | 4.8 | 0.00 | 0.00 | 0.00 | 77 | 1015.3 |
| 20260507112357 | 9 | 113 | 3.2 | 11.3 | 0.00 | 0.00 | 0.00 | 77 | 1015.3 |
| 20260507111857 | 9 | 135 | 1.6 | 4.8 | 0.00 | 0.00 | 0.00 | 77 | 1015.3 |
| 20260507111357 | 9 | 111 | 4.8 | 11.3 | 0.00 | 0.00 | 0.00 | 76 | 1015.3 |
| 20260507110857 | 8 | 114 | 6.4 | 11.3 | 0.00 | 0.00 | 0.00 | 76 | 1015.4 |
| 20260507110358 | 8 | 122 | 4.8 | 11.3 | 0.00 | 0.00 | 0.00 | 77 | 1015.4 |
| 20260507105857 | 8 | 140 | 4.8 | 9.7 | 0.00 | 0.00 | 0.00 | 76 | 1015.4 |
| 20260507104858 | 8 | 144 | 4.8 | 11.3 | 0.00 | 0.00 | 0.00 | 76 | 1015.5 |
| 20260507104357 | 8 | 120 | 6.4 | 12.9 | 0.00 | 0.00 | 0.00 | 76 | 1015.5 |
| 20260507103858 | 8 | 103 | 4.8 | 12.9 | 0.00 | 0.00 | 0.00 | 78 | 1015.5 |
| 20260507103401 | 8 | 134 | 6.4 | 11.3 | 0.00 | 0.00 | 0.00 | 78 | 1015.4 |
| 20260507102900 | 8 | 132 | 6.4 | 12.9 | 0.00 | 0.00 | 0.00 | 78 | 1015.5 |
| 20260507102357 | 8 | 149 | 4.8 | 11.3 | 0.00 | 0.00 | 0.00 | 79 | 1015.4 |
| 20260507101357 | 8 | 101 | 8.0 | 12.9 | 0.00 | 0.00 | 0.00 | 79 | 1015.3 |
| 20260507100857 | 8 | 106 | 8.0 | 12.9 | 0.00 | 0.00 | 0.00 | 80 | 1015.4 |
| 20260507100357 | 8 | 92 | 3.2 | 12.9 | 0.00 | 0.00 | 0.00 | 80 | 1015.4 |
| 20260507095857 | 8 | 85 | 4.8 | 11.3 | 0.00 | 0.00 | 0.00 | 81 | 1015.4 |
| 20260507094857 | 8 | 98 | 9.7 | 19.3 | 0.00 | 0.00 | 0.00 | 81 | 1015.5 |
| 20260507094356 | 8 | 103 | 8.0 | 12.9 | 0.00 | 0.00 | 0.00 | 81 | 1015.5 |
| 20260507093357 | 8 | 93 | 4.8 | 16.1 | 0.00 | 0.00 | 0.00 | 82 | 1015.4 |
| 20260507092857 | 8 | 106 | 4.8 | 12.9 | 0.00 | 0.00 | 0.00 | 82 | 1015.3 |
| 20260507092357 | 7 | 91 | 6.4 | 11.3 | 0.00 | 0.00 | 0.00 | 82 | 1015.3 |
| 20260507091859 | 7 | 105 | 8.0 | 12.9 | 0.00 | 0.00 | 0.00 | 82 | 1015.3 |
| 20260507090857 | 7 | 84 | 4.8 | 8.0 | 0.00 | 0.00 | 0.00 | 83 | 1015.3 |
| 20260507090358 | 7 | 78 | 4.8 | 9.7 | 0.00 | 0.00 | 0.00 | 83 | 1015.3 |
| 20260507085857 | 7 | 82 | 3.2 | 9.7 | 0.00 | 0.00 | 0.00 | 84 | 1015.3 |
| 20260507085357 | 7 | 95 | 4.8 | 9.7 | 0.00 | 0.00 | 0.00 | 84 | 1015.3 |
| 20260507084857 | 7 | 68 | 1.6 | 8.0 | 0.00 | 0.00 | 0.00 | 84 | 1015.3 |
| 20260507082857 | 6 | 102 | 3.2 | 11.3 | 0.00 | 0.00 | 0.00 | 84 | 1015.4 |
| 20260507082357 | 6 | 81 | 4.8 | 9.7 | 0.00 | 0.00 | 0.00 | 85 | 1015.4 |
| 20260507081857 | 6 | 97 | 3.2 | 8.0 | 0.00 | 0.00 | 0.00 | 85 | 1015.4 |
| 20260507081357 | 6 | 82 | 1.6 | 4.8 | 0.00 | 0.00 | 0.00 | 85 | 1015.4 |
| 20260507075857 | 6 | 90 | 1.6 | 4.8 | 0.00 | 0.00 | 0.00 | 85 | 1015.4 |
| 20260507075356 | 6 | 90 | 1.6 | 4.8 | 0.00 | 0.00 | 0.00 | 85 | 1015.4 |
| 20260507074857 | 6 | 90 | 1.6 | 4.8 | 0.00 | 0.00 | 0.00 | 85 | 1015.4 |
| 20260507074356 | 6 | 90 | 1.6 | 8.0 | 0.00 | 0.00 | 0.00 | 85 | 1015.4 |
| 20260507073857 | 6 | 90 | 1.6 | 4.8 | 0.00 | 0.00 | 0.00 | 85 | 1015.4 |
| 20260507073356 | 6 | 90 | 3.2 | 8.0 | 0.00 | 0.00 | 0.00 | 85 | 1015.3 |
| 20260507072857 | 6 | 84 | 3.2 | 8.0 | 0.00 | 0.00 | 0.00 | 85 | 1015.2 |
| 20260507072356 | 6 | 76 | 3.2 | 9.7 | 0.00 | 0.00 | 0.00 | 85 | 1015.2 |
| 20260507071857 | 6 | 82 | 3.2 | 9.7 | 0.00 | 0.00 | 0.00 | 85 | 1015.2 |
| 20260507071356 | 6 | 74 | 3.2 | 8.0 | 0.00 | 0.00 | 0.00 | 85 | 1015.2 |
| 20260507070857 | 6 | 93 | 3.2 | 8.0 | 0.00 | 0.00 | 0.00 | 85 | 1015.2 |
| 20260507070357 | 6 | 93 | 1.6 | 4.8 | 0.00 | 0.00 | 0.00 | 84 | 1015.2 |
| 20260507065857 | 6 | 93 | 1.6 | 4.8 | 0.00 | 0.00 | 0.00 | 84 | 1015.2 |
| 20260507064857 | 6 | 93 | 1.6 | 8.0 | 0.00 | 0.00 | 0.00 | 84 | 1015.1 |
| 20260507064357 | 5 | 92 | 3.2 | 8.0 | 0.00 | 0.00 | 0.00 | 84 | 1015.1 |
| 20260507063857 | 5 | 92 | 3.2 | 8.0 | 0.00 | 0.00 | 0.00 | 84 | 1015.1 |
| 20260507063357 | 5 | 92 | 1.6 | 3.2 | 0.00 | 0.00 | 0.00 | 84 | 1015.1 |
| 20260507062857 | 5 | 92 | 0.0 | 3.2 | 0.00 | 0.00 | 0.00 | 84 | 1015.2 |
| 20260507062356 | 5 | 92 | 1.6 | 8.0 | 0.00 | 0.00 | 0.00 | 84 | 1015.1 |
| 20260507061858 | 5 | 89 | 3.2 | 8.0 | 0.00 | 0.00 | 0.00 | 84 | 1015.0 |
| 20260507061356 | 5 | 92 | 3.2 | 8.0 | 0.00 | 0.00 | 0.00 | 85 | 1015.0 |
| 20260507060859 | 5 | 68 | 1.6 | 8.0 | 0.00 | 0.00 | 0.00 | 85 | 1015.0 |
| 20260507055857 | 5 | 103 | 1.6 | 3.2 | 0.00 | 0.00 | 0.00 | 85 | 1014.9 |
| 20260507055356 | 5 | 82 | 0.0 | 3.2 | 0.00 | 0.00 | 0.00 | 85 | 1014.9 |
| 20260507054857 | 5 | 82 | 3.2 | 8.0 | 0.00 | 0.00 | 0.00 | 85 | 1014.8 |
| 20260507054356 | 5 | 83 | 1.6 | 4.8 | 0.00 | 0.00 | 0.00 | 84 | 1014.9 |
| 20260507053857 | 5 | 83 | 0.0 | 3.2 | 0.00 | 0.00 | 0.00 | 84 | 1014.9 |
| 20260507053357 | 5 | 83 | 0.0 | 3.2 | 0.00 | 0.00 | 0.00 | 84 | 1014.8 |
| 20260507052856 | 5 | 83 | 0.0 | 3.2 | 0.00 | 0.00 | 0.00 | 84 | 1014.8 |
| 20260507052357 | 5 | 83 | 1.6 | 4.8 | 0.00 | 0.00 | 0.00 | 84 | 1014.8 |
| 20260507051857 | 5 | 83 | 0.0 | 3.2 | 0.00 | 0.00 | 0.00 | 84 | 1014.8 |
| 20260507051357 | 5 | 83 | 1.6 | 4.8 | 0.00 | 0.00 | 0.00 | 84 | 1014.7 |
| 20260507050357 | 5 | 111 | 1.6 | 4.8 | 0.00 | 0.00 | 0.00 | 83 | 1014.8 |
| 20260507045858 | 5 | 111 | 1.6 | 4.8 | 0.00 | 0.00 | 0.00 | 83 | 1014.8 |
| 20260507045356 | 5 | 111 | 3.2 | 8.0 | 0.00 | 0.00 | 0.00 | 83 | 1014.8 |
| 20260507044357 | 5 | 62 | 1.6 | 3.2 | 0.00 | 0.00 | 0.00 | 83 | 1014.8 |
| 20260507043857 | 5 | 62 | 0.0 | 1.6 | 0.00 | 0.00 | 0.00 | 83 | 1014.8 |
| 20260507043357 | 5 | 62 | 1.6 | 4.8 | 0.00 | 0.00 | 0.00 | 82 | 1014.7 |
| 20260507041356 | 5 | 62 | 3.2 | 9.7 | 0.00 | 0.00 | 0.00 | 82 | 1014.7 |
| 20260507040857 | 5 | 86 | 1.6 | 9.7 | 0.00 | 0.00 | 0.00 | 81 | 1014.7 |
| 20260507040357 | 5 | 77 | 4.8 | 8.0 | 0.00 | 0.00 | 0.00 | 81 | 1014.8 |
| 20260507035858 | 5 | 82 | 3.2 | 8.0 | 0.00 | 0.00 | 0.00 | 81 | 1014.8 |
| 20260507035356 | 5 | 88 | 3.2 | 8.0 | 0.00 | 0.00 | 0.00 | 82 | 1014.7 |
| 20260507034857 | 5 | 64 | 1.6 | 1.6 | 0.00 | 0.00 | 0.00 | 82 | 1014.8 |
| 20260507034357 | 5 | 64 | 0.0 | 4.8 | 0.00 | 0.00 | 0.00 | 82 | 1014.7 |
| 20260507033857 | 5 | 83 | 1.6 | 8.0 | 0.00 | 0.00 | 0.00 | 82 | 1014.7 |
| 20260507033357 | 5 | 83 | 1.6 | 3.2 | 0.00 | 0.00 | 0.00 | 82 | 1014.7 |
| 20260507032856 | 5 | 83 | 0.0 | 3.2 | 0.00 | 0.00 | 0.00 | 82 | 1014.7 |
| 20260507032356 | 5 | 30 | 1.6 | 3.2 | 0.00 | 0.00 | 0.00 | 83 | 1014.8 |
| 20260507031856 | 5 | 30 | 1.6 | 4.8 | 0.00 | 0.00 | 0.00 | 83 | 1014.8 |
| 20260507031357 | 5 | 49 | 1.6 | 4.8 | 0.00 | 0.00 | 0.00 | 83 | 1014.8 |
| 20260507030857 | 5 | 69 | 1.6 | 3.2 | 0.00 | 0.00 | 0.00 | 83 | 1014.9 |
| 20260507030357 | 5 | 82 | 0.0 | 3.2 | 0.00 | 0.00 | 0.00 | 83 | 1014.9 |
| 20260507025857 | 5 | 10 | 1.6 | 4.8 | 0.00 | 0.00 | 0.00 | 83 | 1014.8 |
| 20260507025356 | 5 | 89 | 1.6 | 8.0 | 0.00 | 0.00 | 0.00 | 83 | 1014.9 |
| 20260507024856 | 5 | 12 | 0.0 | 4.8 | 0.00 | 0.00 | 0.00 | 83 | 1014.9 |
| 20260507024358 | 5 | 82 | 1.6 | 4.8 | 0.00 | 0.00 | 0.00 | 83 | 1015.0 |
| 20260507023357 | 5 | 8 | 3.2 | 4.8 | 0.00 | 0.00 | 0.00 | 84 | 1015.0 |
| 20260507022857 | 5 | 74 | 1.6 | 4.8 | 0.00 | 0.00 | 0.00 | 84 | 1015.0 |
| 20260507022356 | 5 | 71 | 1.6 | 4.8 | 0.00 | 0.00 | 0.00 | 83 | 1015.1 |
| 20260507021857 | 5 | 83 | 3.2 | 8.0 | 0.00 | 0.00 | 0.00 | 84 | 1015.1 |
| 20260507021356 | 5 | 89 | 1.6 | 4.8 | 0.00 | 0.00 | 0.00 | 83 | 1015.1 |
| 20260507020857 | 5 | 81 | 1.6 | 9.7 | 0.00 | 0.00 | 0.00 | 84 | 1015.1 |
| 20260507015357 | 5 | 82 | 1.6 | 4.8 | 0.00 | 0.00 | 0.00 | 84 | 1015.0 |
| 20260507014857 | 5 | 82 | 1.6 | 4.8 | 0.00 | 0.00 | 0.00 | 84 | 1015.0 |
| 20260507014357 | 5 | 69 | 1.6 | 3.2 | 0.00 | 0.00 | 0.00 | 84 | 1014.9 |
| 20260507013857 | 5 | 69 | 1.6 | 4.8 | 0.00 | 0.00 | 0.00 | 84 | 1014.9 |
| 20260507013357 | 5 | 68 | 3.2 | 8.0 | 0.00 | 0.00 | 0.00 | 85 | 1014.9 |
| 20260507012857 | 5 | 71 | 1.6 | 4.8 | 0.00 | 0.00 | 0.00 | 85 | 1015.1 |
| 20260507012356 | 5 | 71 | 1.6 | 4.8 | 0.00 | 0.00 | 0.00 | 85 | 1015.1 |
| 20260507011357 | 4 | 71 | 1.6 | 3.2 | 0.00 | 0.00 | 0.00 | 85 | 1015.2 |
| 20260507010857 | 4 | 71 | 1.6 | 4.8 | 0.00 | 0.00 | 0.00 | 85 | 1015.1 |
| 20260507010357 | 4 | 71 | 3.2 | 4.8 | 0.00 | 0.00 | 0.00 | 86 | 1015.1 |
| 20260507005857 | 4 | 71 | 3.2 | 4.8 | 0.00 | 0.00 | 0.00 | 86 | 1015.1 |
| 20260507005356 | 4 | 53 | 1.6 | 3.2 | 0.00 | 0.00 | 0.00 | 86 | 1015.2 |
| 20260507004356 | 3 | 76 | 3.2 | 8.0 | 0.00 | 0.00 | 0.00 | 85 | 1015.2 |
| 20260507003857 | 3 | 49 | 1.6 | 3.2 | 0.00 | 0.00 | 0.00 | 85 | 1015.3 |
| 20260507002856 | 3 | 73 | 3.2 | 4.8 | 0.00 | 0.00 | 0.00 | 84 | 1015.4 |
| 20260507002356 | 4 | 73 | 1.6 | 4.8 | 0.00 | 0.00 | 0.00 | 84 | 1015.4 |
| 20260507001857 | 4 | 73 | 1.6 | 4.8 | 0.00 | 0.00 | 0.00 | 84 | 1015.4 |
| 20260507001356 | 4 | 63 | 1.6 | 4.8 | 0.00 | 0.00 | 0.00 | 84 | 1015.4 |
| 20260507000358 | 4 | 80 | 1.6 | 4.8 | 0.00 | 0.00 | 0.00 | 83 | 1015.4 |
| 20260506235857 | 4 | 78 | 3.2 | 4.8 | 0.00 | 0.00 | 0.00 | 83 | 1015.3 |
| 20260506235356 | 4 | 95 | 3.2 | 8.0 | 0.00 | 0.00 | 0.00 | 83 | 1015.4 |
| 20260506234856 | 4 | 79 | 3.2 | 8.0 | 0.00 | 0.00 | 0.00 | 83 | 1015.4 |
| 20260506233357 | 5 | 70 | 3.2 | 8.0 | 0.00 | 0.00 | 0.00 | 82 | 1015.5 |
| 20260506232356 | 5 | 66 | 3.2 | 4.8 | 0.00 | 0.00 | 0.00 | 82 | 1015.4 |
| 20260506231858 | 5 | 76 | 1.6 | 3.2 | 0.00 | 0.00 | 0.00 | 82 | 1015.4 |
| 20260506231356 | 5 | 68 | 1.6 | 8.0 | 0.00 | 0.00 | 0.00 | 81 | 1015.5 |
| 20260506230356 | 5 | 83 | 4.8 | 9.7 | 0.00 | 0.00 | 0.00 | 81 | 1015.5 |
| 20260506225356 | 5 | 78 | 4.8 | 11.3 | 0.00 | 0.00 | 0.00 | 81 | 1015.5 |
| 20260506224856 | 5 | 65 | 3.2 | 4.8 | 0.00 | 0.00 | 0.00 | 81 | 1015.5 |
| 20260506223857 | 5 | 37 | 1.6 | 4.8 | 0.00 | 0.00 | 0.00 | 81 | 1015.5 |
| 20260506223357 | 5 | 74 | 1.6 | 4.8 | 0.00 | 0.00 | 0.00 | 81 | 1015.5 |
| 20260506221856 | 5 | 73 | 4.8 | 9.7 | 0.00 | 0.00 | 0.00 | 80 | 1015.4 |
| 20260506221356 | 5 | 86 | 1.6 | 8.0 | 0.00 | 0.00 | 0.00 | 80 | 1015.5 |
| 20260506220857 | 5 | 44 | 1.6 | 4.8 | 0.00 | 0.00 | 0.00 | 80 | 1015.4 |
| 20260506220356 | 5 | 82 | 3.2 | 8.0 | 0.00 | 0.00 | 0.00 | 80 | 1015.3 |
| 20260506215857 | 5 | 71 | 1.6 | 4.8 | 0.00 | 0.00 | 0.00 | 80 | 1015.3 |
| 20260506215356 | 5 | 58 | 1.6 | 4.8 | 0.00 | 0.00 | 0.00 | 80 | 1015.2 |
| 20260506214857 | 5 | 43 | 3.2 | 9.7 | 0.00 | 0.00 | 0.00 | 80 | 1015.2 |
| 20260506214357 | 6 | 68 | 3.2 | 4.8 | 0.00 | 0.00 | 0.00 | 79 | 1015.2 |
| 20260506213856 | 6 | 19 | 3.2 | 8.0 | 0.00 | 0.00 | 0.00 | 79 | 1015.2 |
| 20260506213356 | 6 | 97 | 1.6 | 4.8 | 0.00 | 0.00 | 0.00 | 79 | 1015.2 |
| 20260506212857 | 6 | 94 | 1.6 | 4.8 | 0.00 | 0.00 | 0.00 | 79 | 1015.2 |
| 20260506212356 | 6 | 33 | 1.6 | 4.8 | 0.00 | 0.00 | 0.00 | 78 | 1015.2 |
| 20260506211857 | 6 | 80 | 1.6 | 4.8 | 0.00 | 0.00 | 0.00 | 78 | 1015.2 |
| 20260506211356 | 6 | 9 | 1.6 | 4.8 | 0.00 | 0.00 | 0.00 | 78 | 1015.2 |
| 20260506210856 | 6 | 35 | 1.6 | 3.2 | 0.00 | 0.00 | 0.00 | 78 | 1015.3 |
| 20260506210356 | 6 | 10 | 1.6 | 4.8 | 0.00 | 0.00 | 0.00 | 77 | 1015.3 |
| 20260506205857 | 6 | 18 | 1.6 | 3.2 | 0.00 | 0.00 | 0.00 | 77 | 1015.3 |
| 20260506205356 | 6 | 50 | 1.6 | 4.8 | 0.00 | 0.00 | 0.00 | 77 | 1015.3 |
| 20260506204857 | 6 | 96 | 0.0 | 3.2 | 0.00 | 0.00 | 0.00 | 77 | 1015.3 |
| 20260506204357 | 6 | 124 | 0.0 | 8.0 | 0.00 | 0.00 | 0.00 | 77 | 1015.2 |
| 20260506203856 | 6 | 91 | 0.0 | 4.8 | 0.00 | 0.00 | 0.00 | 77 | 1015.2 |
| 20260506202857 | 6 | 28 | 1.6 | 4.8 | 0.00 | 0.00 | 0.00 | 76 | 1015.1 |
| 20260506202356 | 6 | 343 | 1.6 | 4.8 | 0.00 | 0.00 | 0.00 | 76 | 1015.1 |
| 20260506201857 | 7 | 6 | 1.6 | 4.8 | 0.00 | 0.00 | 0.00 | 75 | 1015.0 |
| 20260506200856 | 7 | 42 | 1.6 | 4.8 | 0.00 | 0.00 | 0.00 | 74 | 1014.9 |
| 20260506200356 | 7 | 71 | 1.6 | 3.2 | 0.00 | 0.00 | 0.00 | 73 | 1014.9 |
| 20260506195356 | 7 | 58 | 1.6 | 4.8 | 0.00 | 0.00 | 0.00 | 71 | 1014.8 |
| 20260506194857 | 8 | 88 | 3.2 | 11.3 | 0.00 | 0.00 | 0.00 | 71 | 1014.7 |
| 20260506193857 | 8 | 92 | 3.2 | 12.9 | 0.00 | 0.00 | 0.00 | 69 | 1014.7 |
| 20260506193356 | 8 | 95 | 4.8 | 12.9 | 0.00 | 0.00 | 0.00 | 69 | 1014.6 |
| 20260506192857 | 8 | 86 | 4.8 | 14.5 | 0.00 | 0.00 | 0.00 | 69 | 1014.6 |
| 20260506192356 | 8 | 94 | 1.6 | 9.7 | 0.00 | 0.00 | 0.00 | 69 | 1014.5 |
| 20260506191857 | 8 | 77 | 1.6 | 4.8 | 0.00 | 0.00 | 0.00 | 69 | 1014.5 |
| 20260506191356 | 8 | 86 | 0.0 | 3.2 | 0.00 | 0.00 | 0.00 | 68 | 1014.5 |
| 20260506190357 | 8 | 95 | 1.6 | 9.7 | 0.00 | 0.00 | 0.00 | 67 | 1014.4 |
| 20260506185857 | 8 | 97 | 3.2 | 9.7 | 0.00 | 0.00 | 0.00 | 66 | 1014.4 |
| 20260506185356 | 9 | 88 | 3.2 | 9.7 | 0.00 | 0.00 | 0.00 | 66 | 1014.5 |
| 20260506184857 | 9 | 97 | 4.8 | 11.3 | 0.00 | 0.00 | 0.00 | 66 | 1014.4 |
| 20260506184355 | 9 | 91 | 6.4 | 12.9 | 0.00 | 0.00 | 0.00 | 66 | 1014.4 |
| 20260506182856 | 9 | 89 | 3.2 | 12.9 | 0.00 | 0.00 | 0.00 | 64 | 1014.3 |
| 20260506182356 | 10 | 89 | 8.0 | 12.9 | 0.00 | 0.00 | 0.00 | 64 | 1014.4 |
| 20260506181856 | 10 | 86 | 6.4 | 14.5 | 0.00 | 0.00 | 0.00 | 64 | 1014.3 |
| 20260506180356 | 10 | 96 | 4.8 | 12.9 | 0.00 | 0.00 | 0.00 | 63 | 1014.2 |
| 20260506175858 | 10 | 98 | 8.0 | 16.1 | 0.00 | 0.00 | 0.00 | 62 | 1014.3 |
| 20260506175356 | 10 | 97 | 3.2 | 9.7 | 0.00 | 0.00 | 0.00 | 62 | 1014.3 |
| 20260506174857 | 10 | 97 | 4.8 | 14.5 | 0.00 | 0.00 | 0.00 | 63 | 1014.2 |
| 20260506173856 | 10 | 92 | 8.0 | 14.5 | 0.00 | 0.00 | 0.00 | 62 | 1014.2 |
| 20260506173356 | 10 | 84 | 8.0 | 19.3 | 0.00 | 0.00 | 0.00 | 62 | 1014.1 |
| 20260506172857 | 11 | 92 | 3.2 | 11.3 | 0.00 | 0.00 | 0.00 | 62 | 1014.1 |
| 20260506172357 | 11 | 97 | 6.4 | 16.1 | 0.00 | 0.00 | 0.00 | 62 | 1014.2 |
| 20260506171857 | 10 | 90 | 4.8 | 12.9 | 0.00 | 0.00 | 0.00 | 62 | 1014.2 |
| 20260506170857 | 10 | 88 | 4.8 | 12.9 | 0.00 | 0.00 | 0.00 | 62 | 1014.2 |
| 20260506170356 | 10 | 102 | 3.2 | 9.7 | 0.00 | 0.00 | 0.00 | 62 | 1014.2 |
| 20260506165856 | 10 | 87 | 3.2 | 8.0 | 0.00 | 0.00 | 0.00 | 62 | 1014.3 |
| 20260506165356 | 10 | 90 | 1.6 | 9.7 | 0.00 | 0.00 | 0.00 | 62 | 1014.3 |
| 20260506164356 | 10 | 99 | 4.8 | 11.3 | 0.00 | 0.00 | 0.00 | 59 | 1014.4 |
| 20260506163856 | 10 | 102 | 3.2 | 11.3 | 0.00 | 0.00 | 0.00 | 59 | 1014.4 |
| 20260506163356 | 10 | 93 | 4.8 | 9.7 | 0.00 | 0.00 | 0.00 | 57 | 1014.4 |
| 20260506162856 | 10 | 88 | 3.2 | 9.7 | 0.00 | 0.00 | 0.00 | 58 | 1014.4 |
| 20260506162355 | 10 | 88 | 1.6 | 4.8 | 0.00 | 0.00 | 0.00 | 58 | 1014.5 |
| 20260506161356 | 10 | 101 | 3.2 | 8.0 | 0.00 | 0.00 | 0.00 | 57 | 1014.5 |
| 20260506160356 | 10 | 90 | 3.2 | 9.7 | 0.00 | 0.00 | 0.00 | 58 | 1014.5 |
| 20260506155856 | 10 | 93 | 6.4 | 12.9 | 0.00 | 0.00 | 0.00 | 58 | 1014.5 |
| 20260506155356 | 10 | 92 | 4.8 | 9.7 | 0.00 | 0.00 | 0.00 | 57 | 1014.4 |
| 20260506154856 | 10 | 92 | 4.8 | 9.7 | 0.00 | 0.00 | 0.00 | 57 | 1014.4 |
| 20260506154356 | 10 | 94 | 4.8 | 8.0 | 0.00 | 0.00 | 0.00 | 55 | 1014.4 |
| 20260506153856 | 10 | 96 | 3.2 | 11.3 | 0.00 | 0.00 | 0.00 | 56 | 1014.4 |
| 20260506151856 | 10 | 97 | 4.8 | 11.3 | 0.00 | 0.00 | 0.00 | 54 | 1014.5 |
| 20260506151355 | 10 | 91 | 1.6 | 8.0 | 0.00 | 0.00 | 0.00 | 56 | 1014.6 |
| 20260506150857 | 10 | 99 | 4.8 | 8.0 | 0.00 | 0.00 | 0.00 | 54 | 1014.6 |
| 20260506145856 | 10 | 96 | 1.6 | 8.0 | 0.00 | 0.00 | 0.00 | 56 | 1014.6 |
| 20260506145356 | 10 | 95 | 4.8 | 9.7 | 0.00 | 0.00 | 0.00 | 56 | 1014.6 |
| 20260506144357 | 10 | 92 | 4.8 | 12.9 | 0.00 | 0.00 | 0.00 | 54 | 1014.7 |
| 20260506143356 | 10 | 40 | 0.0 | 3.2 | 0.00 | 0.00 | 0.00 | 55 | 1014.6 |
| 20260506142856 | 10 | 61 | 1.6 | 4.8 | 0.00 | 0.00 | 0.00 | 56 | 1014.6 |
| 20260506142356 | 10 | 61 | 1.6 | 8.0 | 0.00 | 0.00 | 0.00 | 56 | 1014.6 |
| 20260506141856 | 10 | 113 | 1.6 | 9.7 | 0.00 | 0.00 | 0.00 | 54 | 1014.6 |
| 20260506141356 | 11 | 88 | 3.2 | 8.0 | 0.00 | 0.00 | 0.00 | 54 | 1014.7 |
| 20260506140856 | 11 | 359 | 3.2 | 12.9 | 0.00 | 0.00 | 0.00 | 55 | 1014.7 |
| 20260506140356 | 11 | 21 | 4.8 | 11.3 | 0.00 | 0.00 | 0.00 | 54 | 1014.7 |
| 20260506135856 | 11 | 59 | 4.8 | 9.7 | 0.00 | 0.00 | 0.00 | 54 | 1014.7 |
| 20260506135357 | 11 | 80 | 6.4 | 12.9 | 0.00 | 0.00 | 0.00 | 53 | 1014.7 |
| 20260506134856 | 10 | 137 | 3.2 | 8.0 | 0.00 | 0.00 | 0.00 | 51 | 1014.7 |
| 20260506134356 | 10 | 78 | 3.2 | 9.7 | 0.00 | 0.00 | 0.00 | 52 | 1014.7 |
| 20260506133356 | 10 | 84 | 3.2 | 14.5 | 0.00 | 0.00 | 0.00 | 55 | 1014.8 |
| 20260506132856 | 10 | 93 | 4.8 | 11.3 | 0.00 | 0.00 | 0.00 | 56 | 1014.8 |
| 20260506132356 | 10 | 82 | 3.2 | 8.0 | 0.00 | 0.00 | 0.00 | 56 | 1014.8 |
| 20260506131856 | 10 | 95 | 4.8 | 12.9 | 0.00 | 0.00 | 0.00 | 56 | 1014.8 |